Kuiper-00118

operational
NORAD ID: 65154 Int'l Des: 2025-171 Owner: KUIP Country: US Constellation: kuiper
LEOCIRCULAR

About Kuiper-00118

Description loading...

Live Position

Loading 3D Globe...

Upcoming Passes

Altitude History

Altitude vs Time

uPlot chart will show altitude changes over time

Two-Line Element Set

1 65154U 25171Y 25302.95449079 -.00014187 00000-0 -18353-2 0 9991
2 65154 51.9006 33.6938 0001560 72.3276 287.7857 14.79943315 13289
Epoch: Oct 29, 2025 • Age: 18 hours

Current Status

Altitude 634.7 km
Velocity 7.55 km/s
Sub-Earth Point 52.02°N, 173.61°W
Launch Date Aug 11, 2025
Age 0.2 years
Type internet

Technical Details

Classification Payload
Mass 490.00 kg
Dry Mass 490.00 kg
Total Mass 490.00 kg
Length 1.80 m
Diameter 0.70 m
Span 5.00 m
Shape Box + 2 pan
Manufacturer KUIP
Bus Type Kuiper
Phase Status In Orbit
Owner/State KUIP/US

Large Constellations

Loading constellations...